Plattsburgh, NY

2:48 PM EST on December 09, 2016 (GMT -0500)
Plattsburgh International

Weather History for KPBG - January, 2012

Change the Weather History Date:

Monday, January 30, 2012

  Actual Average Record
Temperature  
Mean Temperature 25 °F 17 °F  
Max Temperature 31 °F 27 °F 56 °F (2013)
Min Temperature 18 °F 6 °F -18 °F (1957)
Degree Days  
Heating Degree Days 40 48  
Month to date heating degree days 1249 1443  
Since 1 July heating degree days 3651 4329  
Cooling Degree Days 0 0  
Month to date cooling degree days 0  
Year to date cooling degree days 0  
Moisture  
Dew Point 11 °F    
Average Humidity 54    
Maximum Humidity 73    
Minimum Humidity 35    
Precipitation  
Precipitation T in - 0.67 in (1990)
Month to date precipitation 1.57  
Year to date precipitation 1.57  
Sea Level Pressure  
Sea Level Pressure 30.15 in    
Wind  
Wind Speed 5 mph (NW)    
Max Wind Speed 18 mph    
Max Gust Speed 26 mph    
Visibility 10 miles    
Events      
T = Trace of Precipitation, MM = Missing Value Source: NWS Daily Summary

Daily Weather History Graph

Daily Weather History Graph

Search for Another Location

Airport or City:

Trip Planner

Search our weather history database for the weather conditions in past years. The results will help you decide how hot, cold, wet, or windy it might be!

Date:

Astronomy

Jan. 30, 2012 Rise Set
Actual Time 7:15 AM EST 4:59 PM EST
Civil Twilight 6:44 AM EST 5:30 PM EST
Nautical Twilight 6:09 AM EST 6:05 PM EST
Astronomical Twilight 5:34 AM EST 6:39 PM EST
Moon 10:15 AM EST (1/30) 12:00 AM EST (1/30)
Length of Visible Light 10h 46m
Length of Day
9h 43m
Waxing Crescent, 46% of the Moon is Illuminated
Jan 30
Waxing Crescent
Jan 30
First Quarter
Feb 7
Full
Feb 14
Last Quarter
Feb 21
New

Hourly Weather History & Observations

Time (EST) Temp. Windchill Dew Point Humidity Pressure Visibility Wind Dir Wind Speed Gust Speed Precip Events Conditions
12:53 AM 28.0 °F - 24.1 °F 85% 29.93 in 10.0 mi Calm Calm - 0.00 in   Overcast
1:53 AM 30.0 °F - 21.9 °F 72% 29.95 in 10.0 mi Calm Calm - N/A   Overcast
2:53 AM 28.9 °F 25.2 °F 19.9 °F 69% 29.97 in 10.0 mi WNW 3.5 mph - N/A   Overcast
3:53 AM 28.9 °F 22.8 °F 19.0 °F 67% 30.00 in 10.0 mi NW 5.8 mph - N/A   Overcast
4:53 AM 27.0 °F 20.5 °F 16.0 °F 63% 30.03 in 10.0 mi NW 5.8 mph - N/A   Mostly Cloudy
5:53 AM 24.1 °F 13.7 °F 12.9 °F 62% 30.08 in 10.0 mi WNW 10.4 mph - N/A   Mostly Cloudy
6:53 AM 21.9 °F 12.5 °F 9.0 °F 58% 30.11 in 10.0 mi NW 8.1 mph - N/A   Clear
7:53 AM 21.9 °F 14.5 °F 9.0 °F 58% 30.13 in 10.0 mi NNW 5.8 mph - N/A   Clear
8:53 AM 21.9 °F 14.5 °F 9.0 °F 58% 30.16 in 10.0 mi NW 5.8 mph - N/A   Clear
9:53 AM 24.1 °F 12.5 °F 7.0 °F 48% 30.19 in 10.0 mi NNW 12.7 mph 19.6 mph N/A   Overcast
10:53 AM 26.1 °F 15.6 °F 6.1 °F 43% 30.21 in 10.0 mi NNW 11.5 mph 18.4 mph N/A   Overcast
11:53 AM 26.1 °F 19.4 °F 5.0 °F 41% 30.20 in 10.0 mi WNW 5.8 mph - N/A   Mostly Cloudy
12:53 PM 28.0 °F 19.3 °F 5.0 °F 38% 30.18 in 10.0 mi NNW 9.2 mph - N/A   Overcast
1:53 PM 28.0 °F 18.6 °F 5.0 °F 38% 30.19 in 10.0 mi West 10.4 mph 24.2 mph N/A   Overcast
3:53 PM 27.0 °F 21.6 °F 3.9 °F 37% 30.21 in 10.0 mi WNW 4.6 mph 17.3 mph N/A   Clear
4:53 PM 25.0 °F 19.3 °F 5.0 °F 43% 30.22 in 10.0 mi West 4.6 mph - N/A   Clear
5:53 PM 24.1 °F - 6.1 °F 46% 30.24 in 10.0 mi Calm Calm - N/A   Clear
6:53 PM 21.0 °F - 9.0 °F 60% 30.24 in 10.0 mi Calm Calm - N/A   Mostly Cloudy
7:53 PM 19.0 °F - 10.0 °F 68% 30.25 in 10.0 mi Calm Calm - N/A   Clear
8:53 PM 19.0 °F - 10.9 °F 71% 30.25 in 10.0 mi Calm Calm - N/A   Partly Cloudy
9:53 PM 19.9 °F 14.9 °F 10.9 °F 68% 30.25 in 10.0 mi West 3.5 mph - N/A   Mostly Cloudy
10:53 PM 19.9 °F - 12.9 °F 74% 30.25 in 10.0 mi Calm Calm - N/A   Overcast
11:53 PM 21.0 °F - 12.9 °F 71% 30.23 in 10.0 mi Calm Calm - N/A   Overcast